Location: Brusselsch Zeekanaal
(50.8667°N, 4.3667°E)
Time: 03:58:28
(UTC+00:00)

Cosmos 2278 Rocket - Visible Passes

Search period start: 19 February 2026 00:00
Search period end: 01 March 2026 00:00
Orbit: 839 x 846 km, 71.0° (Epoch: 18 February)

Date Brightness Start Highest point End Pass type
(mag) Time Alt. Az. Time Alt. Az. Time Alt. Az.
19 Feb 5.1 01:39:09 10° N 01:39:09 10° N 01:39:11 10° N visible
19 Feb 4.5 05:06:10 10° N 05:10:01 18° NNE 05:13:50 10° ENE visible
20 Feb 4.6 04:51:17 10° N 04:55:03 18° NNE 04:58:48 10° ENE visible
21 Feb 4.6 04:36:24 10° N 04:40:05 17° NNE 04:43:45 10° ENE visible
22 Feb 4.7 04:21:31 10° N 04:25:07 17° NNE 04:28:43 10° ENE visible
22 Feb 3.0 06:04:57 10° NNW 06:10:32 54° NE 06:16:05 10° SE visible
23 Feb 4.7 04:06:38 10° N 04:10:09 16° NNE 04:13:40 10° ENE visible
23 Feb 3.1 05:50:03 10° NNW 05:55:36 52° NE 06:01:08 10° SE visible
24 Feb 4.7 03:51:45 10° N 03:55:11 16° NNE 03:58:37 10° ENE visible
24 Feb 3.1 05:35:08 10° NNW 05:40:41 50° NE 05:46:11 10° SE visible
25 Feb 4.8 03:36:51 10° N 03:40:13 16° NNE 03:43:34 10° ENE visible
25 Feb 3.2 05:20:14 10° NNW 05:25:45 48° NE 05:31:14 10° SE visible
26 Feb 4.8 03:21:58 10° N 03:25:15 15° NNE 03:28:31 10° ENE visible
26 Feb 3.3 05:05:20 10° NNW 05:10:49 46° NE 05:16:17 10° SE visible
27 Feb 4.8 03:07:05 10° N 03:10:16 15° NNE 03:13:28 10° ENE visible
27 Feb 3.3 04:50:26 10° NNW 04:55:53 45° NE 05:01:19 10° ESE visible
28 Feb 4.9 02:52:12 10° N 02:55:18 15° NNE 02:58:25 10° ENE visible
28 Feb 3.4 04:35:32 10° NNW 04:40:58 43° NE 04:46:21 10° ESE visible
28 Feb 5.1 23:10:08 11° N 23:10:08 11° N 23:10:21 10° N visible
